Location: Bellver
(42.3698°N, 1.7755°E)
Time: 23:41:18
(UTC+00:00)

Daily predictions for brighter satellites

Satellite Brightness Start Highest point End
(mag) Time Altitude Azimuth Time Altitude Azimuth Time Altitude Azimuth
Cosmos 1825 Rocket 3.8 16:44:26 10° N 16:48:37 46° ENE 16:52:45 10° SSE
IRIDIUM 106 4.3 16:43:44 10° N 16:48:57 68° E 16:54:08 10° S
Cosmos 2098 Rocket 4.2 16:46:26 10° SSW 16:50:43 52° WNW 16:55:44 10° N
Cosmos 1867 3.9 16:46:21 10° NW 16:51:49 77° WSW 16:57:13 10° SSE
Cosmos 2297 Rocket 3.4 16:47:06 10° NW 16:52:31 48° WSW 16:57:54 10° S
SMAP 3.3 16:49:01 10° SE 16:53:27 46° ENE 16:57:55 10° N
NOSS 2-3 (C) 3.1 16:50:39 10° SW 16:54:07 79° NW 16:57:42 10° NNE
SL-16 R/B 2.7 16:48:43 10° NNE 16:54:57 80° WNW 17:01:06 10° SSW
Landsat 7 4.2 16:52:38 10° SE 16:56:57 39° ENE 17:01:16 10° N
CBERS-1 4.1 16:53:15 10° SSE 16:58:22 90° E 17:03:30 10° NNW
IGS 5A 3.3 16:55:04 10° SSE 16:59:01 88° ENE 17:03:00 10° NNW
Meteor 1-20 Rocket 4.4 16:53:44 10° NNW 16:59:12 80° W 17:04:41 10° S
SL-16 R/B 4.0 16:57:37 10° ESE 16:59:47 12° E 17:01:58 10° ENE
Cosmos 1743 4.2 16:57:56 10° NNW 17:00:53 33° W 17:03:49 10° SSW
MOS 1 Rocket 4.1 16:57:34 10° SE 17:02:06 35° ENE 17:06:50 10° N
CORIOLIS 4.1 16:58:24 10° SSE 17:03:40 65° ENE 17:08:58 10° N
NOSS 2-3 (D) 3.9 17:01:34 10° SW 17:05:10 50° NW 17:08:53 10° NNE
SAR-Lupe-4 4.2 17:02:46 10° SE 17:06:00 34° ENE 17:09:15 10° N
IRS-1C 4.3 17:02:02 10° SE 17:07:08 49° ENE 17:12:15 10° N
NOSS 2-3 (E) 4.1 17:03:39 10° WSW 17:07:11 43° NW 17:10:49 10° NNE
SPOT 1/Viking Rocket 4.4 17:06:27 10° ESE 17:10:45 27° ENE 17:15:04 10° N
Cosmos 1844 Rocket 4.2 17:07:42 10° N 17:10:57 15° NE 17:13:38 11° ENE
Cosmos 1980 Rocket 2.2 17:06:04 10° SSW 17:11:42 78° ESE 17:17:21 10° NNE
Cosmos 2151 4.4 17:09:52 10° NNW 17:13:48 41° W 17:17:43 10° SSW
Cosmos 1538 Rocket 4.1 17:10:02 10° NNW 17:15:17 59° ENE 17:20:33 10° SSE
Cosmos-2242 3.5 17:13:07 10° SSE 17:17:01 37° E 17:20:58 10° NNE
Cosmos 2058 Rocket 3.4 17:14:20 10° SSE 17:18:33 44° E 17:22:49 10° NNE
Cosmos 2219 3.5 17:13:26 10° NNW 17:18:59 47° ENE 17:24:31 10° SE
Cosmos 1606 Rocket 4.2 17:15:41 10° SSW 17:20:02 60° W 17:24:27 10° N
SAR-Lupe-1 4.3 17:16:59 10° SE 17:20:25 45° ENE 17:23:53 10° N
Cosmos 2263 Rocket 2.2 17:15:04 10° NNW 17:20:45 72° ENE 17:26:25 10° SSE
Cosmos 1655 Rocket 3.9 17:19:11 10° N 17:25:25 75° E 17:31:37 10° SSE
USA 238 DEB 3.7 17:22:52 10° SW 17:28:53 70° NW 17:35:33 10° NNE
USA 238 3.7 17:22:56 10° SW 17:28:59 71° NW 17:35:39 10° NNE
Cosmos 372 Rocket 3.9 17:24:31 10° SSW 17:29:41 88° ESE 17:34:49 10° NNE
CZ-2D R/B 4.3 17:27:44 10° SE 17:31:14 26° ENE 17:34:41 10° NNE
Meteor 1-26 Rocket 4.2 17:27:03 10° S 17:32:17 54° E 17:37:33 10° NNE
Thor Agena Rocket 4.1 17:27:25 10° S 17:32:34 63° WSW 17:37:40 10° NNW
Cosmos 2369 3.7 17:28:24 10° SSW 17:34:03 67° ESE 17:39:38 11° NNE
Meteor 2-2 Rocket 4.3 17:29:54 10° S 17:35:23 57° E 17:40:54 10° NNE
Cosmos 1805 3.1 17:32:12 10° N 17:35:26 42° E 17:38:37 10° SSE
Meteor 1-5 Rocket 4.3 17:30:08 10° NNW 17:35:33 79° W 17:41:07 10° S
Resurs 1-3 4.4 17:33:23 10° SE 17:36:59 26° ENE 17:40:34 10° NNE
Cosmos 1898 Rocket 3.4 17:32:01 10° SSW 17:37:09 83° ESE 17:42:21 10° NNE
ERS-1 4.3 17:32:31 10° SSE 17:37:30 76° ENE 17:42:28 10° N
USA 308 2.8 17:35:24 10° SSW 17:38:12 40° SE 17:39:44 26° E
SJ-6F 4.3 17:34:33 10° SSE 17:38:29 62° ENE 17:42:28 10° N
COSMOS 2455 3.1 17:37:23 10° S 17:43:07 49° ESE 17:47:15 19° NE
Cosmos 2227 Rocket 3.6 17:39:08 10° NW 17:44:25 42° WSW 17:49:41 10° S
Cosmos 2360 Rocket 3.9 17:41:36 10° SE 17:43:42 14° ESE 17:43:42 14° ESE
SJ-12 3.9 17:42:07 10° S 17:45:52 74° WSW 17:49:39 10° NNW
Cosmos 1937 Rocket 3.4 17:44:13 10° SSW 17:49:22 78° ESE 17:53:59 13° NNE
YAOGAN 1 3.0 17:46:38 10° SE 17:50:33 37° ENE 17:54:28 10° N
EXPRESS MD2 3.5 17:48:14 10° W 17:50:39 39° NNW 17:51:42 29° NNE
Cosmos 44 Rocket 4.3 17:47:08 10° NNW 17:51:31 27° NE 17:52:18 26° ENE
Cosmos 858 Rocket 4.5 17:49:00 10° S 17:54:05 61° ESE 17:57:41 19° NNE
PSLV R/B 4.2 17:52:07 10° SE 17:56:38 30° NE 17:59:24 10° N
IRS-P3 4.1 17:50:38 10° SSE 17:55:57 87° WSW 18:01:18 10° NNW
Cosmos 923 Rocket 3.9 17:51:17 10° NNW 17:56:25 58° ENE 18:01:30 10° SSE
Cosmos 1553 Rocket 3.9 17:57:08 10° S 18:03:18 77° E 18:09:35 10° N
Nadezhda 2 Rocket 4.3 17:57:35 10° N 18:03:43 73° E 18:09:47 10° SSE
S3M 4.4 17:59:23 10° SSE 18:05:07 37° E 18:08:06 24° NE
BREEZE-M DEB (TANK) 4.5 17:38:50 10° WNW 18:05:46 66° N 18:09:21 30° E
Cosmos 2333 Rocket 2.8 18:01:43 10° SSE 18:06:49 34° ESE 18:07:40 33° E
BREEZE-M DEB (TANK) 3.2 18:06:46 10° WNW 18:07:59 22° NNW 18:07:59 22° NNW
Helios 1A Rocket 4.0 18:11:10 24° SSE 18:11:10 24° SSE 18:12:48 10° S
COSMO-SKYMED 1 2.3 18:09:00 39° NE 18:10:20 63° E 18:14:25 10° S
Cosmos 2322 Rocket 3.1 18:06:42 10° SSE 18:11:02 28° ESE 18:11:02 28° ESE
GEOS 3 Rocket 4.5 18:09:30 17° NNE 18:13:29 48° NW 18:18:36 10° WSW
SKYMED 2 3.7 18:11:39 14° N 18:15:18 74° WNW 18:19:38 10° SSW
SL-24 R/B - RUBIN 2 4.1 18:10:16 10° SW 18:15:44 72° NW 18:18:13 30° NNE
Okean 1 4.2 18:14:04 10° SSW 18:17:30 42° WNW 18:20:14 15° N
Cosmos 1709 Rocket 4.4 18:12:16 10° N 18:23:15 11° SE 18:23:30 10° SE
ARIANE 5 R/B 4.1 18:14:06 10° SSW 18:18:45 36° W 18:23:29 10° NNW
USA 59 Rocket 1.0 18:16:29 10° S 18:18:53 26° SSE 18:18:53 26° SSE
Cosmos 1745 Rocket 3.9 18:17:05 10° N 18:23:07 56° ENE 18:29:07 10° SSE
Cosmos 1680 Rocket 3.3 18:22:03 10° NNW 18:27:18 80° ENE 18:32:34 10° SSE
Cosmos 2221 2.7 18:23:30 10° S 18:26:51 52° SSE 18:26:51 52° SSE
Cosmos 1844 3.9 18:23:26 10° NNW 18:28:18 45° NE 18:28:18 45° NE
Radarsat Rocket 4.5 18:22:51 10° SSE 18:30:57 83° ENE 18:38:08 10° NNW
Meteor 1-14 Rocket 4.1 18:25:24 10° N 18:31:07 68° ENE 18:36:39 10° SSE
NOAA 6 3.8 18:26:35 10° SSE 18:31:38 70° ENE 18:36:42 10° N
Cosmos 2082 4.4 18:28:50 10° NNW 18:34:25 56° WSW 18:39:58 10° S
Cosmos 1812 Rocket 3.7 18:33:06 10° S 18:36:39 60° S 18:36:39 60° S
Cosmos 1386 Rocket 4.4 18:33:15 10° N 18:39:24 86° W 18:45:40 10° S
IRAS Rocket 4.1 18:36:05 10° SSE 18:41:33 87° WSW 18:47:04 10° NNW
Cosmos 1417 Rocket 4.3 18:35:53 10° S 18:42:03 85° E 18:46:16 22° N
SL-16 R/B 2.1 18:37:19 10° SSW 18:42:59 89° WNW 18:44:22 54° NNE
Cosmos 2227 4.0 18:42:10 10° NNW 18:47:50 83° ENE 18:48:37 67° SE
Meteor 1-19 Rocket 4.2 18:47:15 10° S 18:51:57 66° SSE 18:51:57 66° SSE
Cosmos 1844 Rocket 2.6 18:50:01 10° NNW 18:55:23 78° N 18:55:23 78° N
Meteor 1-10 Rocket 4.3 18:50:35 10° S 18:55:28 66° SSE 18:55:28 66° SSE
Cosmos 1980 Rocket 4.5 18:52:30 10° W 18:56:20 18° NW 19:00:11 10° N
Cosmos 2278 4.0 19:04:10 10° SW 19:09:48 63° WNW 19:10:08 62° NW
USA 215 4.5 19:17:44 28° N 19:17:44 28° N 19:22:09 10° NW
Cosmos 2360 Rocket 3.3 19:22:10 10° SSW 19:25:30 37° SW 19:25:30 37° SW
COSMOS 2455 4.2 19:23:54 10° WSW 19:29:14 32° NW 19:30:25 30° NNW
Cosmos 2285 Rocket 4.3 19:24:05 10° SSW 19:29:42 61° W 19:29:42 61° W
Cosmos 2219 Rocket 4.5 19:35:45 10° SSW 19:36:28 14° SSW 19:36:28 14° SSW
Cosmos 2333 Rocket 3.7 19:45:43 10° SW 19:49:44 33° W 19:49:44 33° W
Cosmos 2322 Rocket 3.9 19:49:55 10° SW 19:52:53 28° WSW 19:52:53 28° WSW
